Change the Weather History Date:

Friday, July 21, 2006

  Actual Average Record
Temperature  
Mean Temperature 84 °F 77 °F  
Max Temperature 93 °F 87 °F 104 °F (1930)
Min Temperature 75 °F 67 °F 53 °F (1966)
Degree Days  
Heating Degree Days 0 0  
Month to date heating degree days 0  
Since 1 June heating degree days 15  
Since 1 July heating degree days 0  
Cooling Degree Days 19 12  
Month to date cooling degree days 250  
Year to date cooling degree days 572  
Since 1 June cooling degree days 488  
Growing Degree Days 34 (Base 50)    
Moisture  
Dew Point 71 °F    
Average Humidity 69    
Maximum Humidity 90    
Minimum Humidity 42    
Precipitation  
Precipitation 0.00 in 0.14 in 2.76 in (1887)
Month to date precipitation 2.72  
Year to date precipitation 23.21  
Snow  
Snow 0.00 in 0.00 in - ()
Month to date snowfall 0.0  
Since 1 July snowfall 0.0  
Snow Depth -    
Sea Level Pressure  
Sea Level Pressure 29.91 in    
Wind  
Wind Speed 5 mph (WSW)    
Max Wind Speed 12 mph    
Max Gust Speed -    
Visibility 6 miles    
Events      
T = Trace of Precipitation, MM = Missing Value Source: NWS Daily Summary

Daily Weather History Graph

Daily Weather History Graph

Search for Another Location

Airport or City:

Trip Planner

Search our weather history database for the weather conditions in past years. The results will help you decide how hot, cold, wet, or windy it might be!

Date:

Astronomy

Jul. 21, 2006 Rise Set
Actual Time 5:57 AM EDT 8:28 PM EDT
Civil Twilight 5:26 AM EDT 8:59 PM EDT
Nautical Twilight 4:48 AM EDT 9:37 PM EDT
Astronomical Twilight 4:05 AM EDT 10:19 PM EDT
Moon 2:11 AM EDT (7/21) 6:09 PM EDT (7/21)
Length of Visible Light 15h 32m
Length of Day
14h 30m
Waning Crescent, 13% of the Moon is Illuminated
Jul 21
Waning Crescent
Jul 25
New
Aug 2
First Quarter
Aug 9
Full
Aug 15
Last Quarter

Hourly Weather History & Observations

Time (EDT) Temp. Heat Index Dew Point Humidity Pressure Visibility Wind Dir Wind Speed Gust Speed Precip Events Conditions
12:54 AM 78.1 °F - 73.0 °F 84% 29.98 in 7.0 mi SW 4.6 mph - 0.00 in   Mostly Cloudy
1:54 AM 77.0 °F - 73.0 °F 88% 29.98 in 7.0 mi SSW 4.6 mph - N/A   Mostly Cloudy
2:54 AM 77.0 °F - 73.0 °F 88% 29.96 in 6.0 mi Calm Calm - N/A   Mostly Cloudy
3:54 AM 75.9 °F - 72.0 °F 87% 29.94 in 6.0 mi Calm Calm - N/A   Scattered Clouds
4:54 AM 75.0 °F - 72.0 °F 90% 29.93 in 7.0 mi SW 4.6 mph - N/A   Scattered Clouds
5:54 AM 75.0 °F - 71.1 °F 87% 29.92 in 6.0 mi WSW 4.6 mph - N/A   Partly Cloudy
6:54 AM 75.0 °F - 72.0 °F 90% 29.93 in 5.0 mi Calm Calm - N/A   Partly Cloudy
7:54 AM 78.1 °F - 73.0 °F 84% 29.94 in 5.0 mi SSW 4.6 mph - N/A   Haze
8:54 AM 82.0 °F 87.4 °F 73.0 °F 74% 29.94 in 5.0 mi SW 6.9 mph - N/A   Haze
9:54 AM 84.0 °F 89.6 °F 72.0 °F 67% 29.94 in 5.0 mi WSW 6.9 mph - N/A   Haze
10:54 AM 87.1 °F 93.6 °F 72.0 °F 61% 29.93 in 5.0 mi WSW 9.2 mph - N/A   Haze
11:54 AM 90.0 °F 96.4 °F 71.1 °F 54% 29.92 in 5.0 mi West 8.1 mph - N/A   Haze
12:54 PM 91.0 °F 95.6 °F 69.1 °F 48% 29.91 in 5.0 mi WNW 5.8 mph - N/A   Haze
1:54 PM 91.9 °F 94.5 °F 66.0 °F 42% 29.90 in 6.0 mi WNW 11.5 mph - N/A   Haze
2:54 PM 93.0 °F 96.4 °F 66.9 °F 42% 29.88 in 6.0 mi WNW 9.2 mph - N/A   Haze
3:54 PM 93.0 °F 96.4 °F 66.9 °F 42% 29.87 in 7.0 mi WNW 10.4 mph - N/A   Scattered Clouds
4:54 PM 91.0 °F 95.2 °F 68.0 °F 47% 29.85 in 7.0 mi WNW 9.2 mph - N/A   Mostly Cloudy
5:54 PM 90.0 °F 94.5 °F 69.1 °F 50% 29.85 in 6.0 mi WSW 8.1 mph - N/A   Haze
6:54 PM 86.0 °F 92.2 °F 72.0 °F 63% 29.86 in 5.0 mi SSW 6.9 mph - N/A   Haze
7:54 PM 84.0 °F 89.0 °F 71.1 °F 65% 29.85 in 6.0 mi SSW 9.2 mph - N/A   Haze
8:54 PM 81.0 °F 83.8 °F 68.0 °F 65% 29.86 in 8.0 mi SSW 6.9 mph - N/A   Mostly Cloudy
10:54 PM 75.9 °F - 69.1 °F 79% 29.86 in 9.0 mi WSW 5.8 mph - N/A   Mostly Cloudy
11:54 PM 75.9 °F - 71.1 °F 85% 29.84 in 7.0 mi South 4.6 mph - N/A   Scattered Clouds